EA1AWV-13 Weather Reports


Display with metric or nautical units.
time (UTC)temp
F
wind
direction
speed
MPH
gust
MPH
rain 1hr
in
rain 24hr
in
rain mn
in
humidity
%
barometer
mb
20260506194245 60 0.0 0.0 0.00 0.00 0.00 10 1007.0
20260506193245 60 0.0 0.0 0.00 0.00 0.00 10 1006.9
20260506192245 61 0.0 0.0 0.00 0.00 0.00 10 1006.8
20260506191245 61 0.0 0.0 0.00 0.00 0.00 99 1006.7
20260506190245 61 0.0 0.0 0.00 0.00 0.00 10 1006.6
20260506185245 62 0.0 0.0 0.00 0.00 0.00 10 1006.4
20260506184245 62 0.0 0.0 0.00 0.00 0.00 98 1006.4
20260506183245 63 0.0 0.0 0.00 0.00 0.00 98 1006.2
20260506182245 63 0.0 0.0 0.00 0.00 0.00 10 1006.2
20260506181245 63 0.0 0.0 0.00 0.00 0.00 99 1006.0
20260506180245 64 0.0 0.0 0.00 0.00 0.00 10 1006.1
20260506175245 64 0.0 0.0 0.00 0.00 0.00 10 1006.0
20260506174244 65 0.0 0.0 0.00 0.00 0.00 10 1005.9
20260506173245 65 0.0 0.0 0.00 0.00 0.00 10 1006.0
20260506172244 65 0.0 0.0 0.00 0.00 0.00 99 1006.0
20260506171245 65 0.0 0.0 0.00 0.00 0.00 99 1006.0
20260506170245 65 0.0 0.0 0.00 0.00 0.00 10 1006.1
20260506165245 65 0.0 0.0 0.00 0.00 0.00 10 1006.0
20260506164244 65 0.0 0.0 0.00 0.00 0.00 10 1006.1
20260506163245 65 0.0 0.0 0.00 0.00 0.00 10 1006.1
20260506162244 65 0.0 0.0 0.00 0.00 0.00 10 1006.2
20260506161244 64 0.0 0.0 0.00 0.00 0.00 10 1006.4
20260506160245 64 0.0 0.0 0.00 0.00 0.00 10 1006.5
20260506155245 63 0.0 0.0 0.00 0.00 0.00 10 1006.8
20260506154244 63 0.0 0.0 0.00 0.00 0.00 10 1006.8
20260506153244 64 0.0 0.0 0.00 0.00 0.00 10 1006.6
20260506152244 63 0.0 0.0 0.00 0.00 0.00 10 1007.0
20260506151245 65 0.0 0.0 0.00 0.00 0.00 10 1006.8
20260506150244 64 0.0 0.0 0.00 0.00 0.00 10 1007.0
20260506145244 64 0.0 0.0 0.00 0.00 0.00 10 1007.0
20260506144244 63 0.0 0.0 0.00 0.00 0.00 10 1007.3
20260506143244 65 0.0 0.0 0.00 0.00 0.00 10 1006.9
20260506142244 65 0.0 0.0 0.00 0.00 0.00 10 1007.1
20260506141250 62 0.0 0.0 0.00 0.00 0.00 10 1007.6
20260506140245 62 0.0 0.0 0.00 0.00 0.00 10 1007.8
20260506135245 62 0.0 0.0 0.00 0.00 0.00 10 1007.9
20260506134245 62 0.0 0.0 0.00 0.00 0.00 10 1008.0
20260506133244 63 0.0 0.0 0.00 0.00 0.00 10 1007.8
20260506132244 61 0.0 0.0 0.00 0.00 0.00 10 1008.3
20260506131244 63 0.0 0.0 0.00 0.00 0.00 10 1008.0
20260506130244 62 0.0 0.0 0.00 0.00 0.00 10 1008.2
20260506125244 64 0.0 0.0 0.00 0.00 0.00 10 1008.0
20260506124244 62 0.0 0.0 0.00 0.00 0.00 10 1008.4
20260506123244 62 0.0 0.0 0.00 0.00 0.00 10 1008.7
20260506122244 61 0.0 0.0 0.00 0.00 0.00 10 1008.9
20260506121244 63 0.0 0.0 0.00 0.00 0.00 10 1008.8
20260506120244 61 0.0 0.0 0.00 0.00 0.00 10 1009.0
20260506115244 61 0.0 0.0 0.00 0.00 0.00 10 1009.2
20260506114244 62 0.0 0.0 0.00 0.00 0.00 10 1009.1
20260506113244 61 0.0 0.0 0.00 0.00 0.00 10 1009.4
20260506112244 59 0.0 0.0 0.00 0.00 0.00 10 1009.6
20260506111244 58 0.0 0.0 0.00 0.00 0.00 10 1009.9
20260506110244 56 0.0 0.0 0.00 0.00 0.00 10 1010.5
20260506105244 58 0.0 0.0 0.00 0.00 0.00 10 1009.9
20260506104244 60 0.0 0.0 0.00 0.00 0.00 10 1009.7
20260506103244 60 0.0 0.0 0.00 0.00 0.00 10 1009.5
20260506102244 59 0.0 0.0 0.00 0.00 0.00 10 1009.9
20260506101244 56 0.0 0.0 0.00 0.00 0.00 10 1010.5
20260506100244 56 0.0 0.0 0.00 0.00 0.00 10 1010.4
20260506095244 56 0.0 0.0 0.00 0.00 0.00 10 1010.6
20260506094245 54 0.0 0.0 0.00 0.00 0.00 10 1010.9
20260506093244 54 0.0 0.0 0.00 0.00 0.00 10 1010.7
20260506092244 54 0.0 0.0 0.00 0.00 0.00 10 1010.8
20260506091244 56 0.0 0.0 0.00 0.00 0.00 10 1010.5
20260506090244 57 0.0 0.0 0.00 0.00 0.00 10 1010.2
20260506085244 56 0.0 0.0 0.00 0.00 0.00 10 1010.4
20260506084244 54 0.0 0.0 0.00 0.00 0.00 10 1010.9
20260506083244 52 0.0 0.0 0.00 0.00 0.00 10 1011.2
20260506082244 51 0.0 0.0 0.00 0.00 0.00 10 1011.4
20260506081244 52 0.0 0.0 0.00 0.00 0.00 10 1011.2
20260506080244 51 0.0 0.0 0.00 0.00 0.00 10 1011.5
20260506073244 48 0.0 0.0 0.00 0.00 0.00 10 1012.1
20260506072244 48 0.0 0.0 0.00 0.00 0.00 10 1012.2
20260506071244 47 0.0 0.0 0.00 0.00 0.00 10 1012.4
20260506070244 46 0.0 0.0 0.00 0.00 0.00 10 1012.4
20260506062244 41 0.0 0.0 0.00 0.00 0.00 10 1013.6
20260506061245 42 0.0 0.0 0.00 0.00 0.00 10 1013.4
20260506060244 41 0.0 0.0 0.00 0.00 0.00 10 1013.5
20260506051244 39 0.0 0.0 0.00 0.00 0.00 10 1013.7
20260506050244 38 0.0 0.0 0.00 0.00 0.00 10 1014.0
20260506044244 40 0.0 0.0 0.00 0.00 0.00 10 1013.6
20260506043244 38 0.0 0.0 0.00 0.00 0.00 10 1014.0
20260506042244 39 0.0 0.0 0.00 0.00 0.00 10 1013.9
20260506041244 39 0.0 0.0 0.00 0.00 0.00 10 1014.0
20260506040244 43 0.0 0.0 0.00 0.00 0.00 10 1013.3
20260506035244 42 0.0 0.0 0.00 0.00 0.00 10 1013.5
20260506034244 42 0.0 0.0 0.00 0.00 0.00 10 1013.5
20260506033244 43 0.0 0.0 0.00 0.00 0.00 10 1013.4
20260506032244 42 0.0 0.0 0.00 0.00 0.00 10 1013.5
20260506031244 43 0.0 0.0 0.00 0.00 0.00 10 1013.2
20260506030244 43 0.0 0.0 0.00 0.00 0.00 10 1013.2
20260506025244 42 0.0 0.0 0.00 0.00 0.00 10 1013.4
20260506024244 41 0.0 0.0 0.00 0.00 0.00 10 1013.7
20260506023244 40 0.0 0.0 0.00 0.00 0.00 10 1013.8
20260506022244 39 0.0 0.0 0.00 0.00 0.00 10 1014.0
20260506021244 40 0.0 0.0 0.00 0.00 0.00 10 1013.8
20260506020244 40 0.0 0.0 0.00 0.00 0.00 10 1014.0
20260506015244 40 0.0 0.0 0.00 0.00 0.00 10 1014.0
20260506014244 41 0.0 0.0 0.00 0.00 0.00 10 1013.9
20260506013244 41 0.0 0.0 0.00 0.00 0.00 10 1013.9
20260506012244 42 0.0 0.0 0.00 0.00 0.00 10 1013.8
20260506011244 41 0.0 0.0 0.00 0.00 0.00 10 1014.1
20260506010244 44 0.0 0.0 0.00 0.00 0.00 10 1013.4
20260506005244 44 0.0 0.0 0.00 0.00 0.00 10 1013.4
20260506004244 43 0.0 0.0 0.00 0.00 0.00 10 1014.0
20260506003244 44 0.0 0.0 0.00 0.00 0.00 10 1013.7
20260506002244 45 0.0 0.0 0.00 0.00 0.00 10 1013.4
20260506001245 46 0.0 0.0 0.00 0.00 0.00 10 1013.1
20260506000244 44 0.0 0.0 0.00 0.00 0.00 10 1013.6
20260505235254 46 0.0 0.0 0.00 0.00 0.00 10 1013.4
20260505234244 45 0.0 0.0 0.00 0.00 0.00 10 1013.4
20260505233244 44 0.0 0.0 0.00 0.00 0.00 10 1013.7
20260505232244 45 0.0 0.0 0.00 0.00 0.00 10 1013.7
20260505231244 47 0.0 0.0 0.00 0.00 0.00 10 1013.3
20260505230244 46 0.0 0.0 0.00 0.00 0.00 10 1013.3
20260505225244 46 0.0 0.0 0.00 0.00 0.00 10 1013.3
20260505224244 46 0.0 0.0 0.00 0.00 0.00 10 1013.5
20260505223244 46 0.0 0.0 0.00 0.00 0.00 10 1013.5
20260505222244 47 0.0 0.0 0.00 0.00 0.00 10 1013.3
20260505221244 48 0.0 0.0 0.00 0.00 0.00 10 1013.2
20260505220244 47 0.0 0.0 0.00 0.00 0.00 10 1013.6
20260505215245 46 0.0 0.0 0.00 0.00 0.00 10 1013.6
20260505214244 49 0.0 0.0 0.00 0.00 0.00 10 1013.2
20260505213244 50 0.0 0.0 0.00 0.00 0.00 10 1012.9
20260505212244 50 0.0 0.0 0.00 0.00 0.00 10 1012.8
20260505211244 50 0.0 0.0 0.00 0.00 0.00 10 1012.8
20260505210244 50 0.0 0.0 0.00 0.00 0.00 10 1012.7
20260505205244 50 0.0 0.0 0.00 0.00 0.00 10 1012.7
20260505204244 49 0.0 0.0 0.00 0.00 0.00 10 1012.7
20260505203244 51 0.0 0.0 0.00 0.00 0.00 10 1012.4
20260505202244 51 0.0 0.0 0.00 0.00 0.00 10 1012.0
20260505200244 50 0.0 0.0 0.00 0.00 0.00 10 1012.1
20260505195244 49 0.0 0.0 0.00 0.00 0.00 10 1012.0